Location: *
(47.3869°N, 9.2783°E)
Time: 01:55:33
(UTC+00:00)

Daily predictions for brighter satellites

Satellite Brightness Start Highest point End
(mag) Time Altitude Azimuth Time Altitude Azimuth Time Altitude Azimuth
FALCON 9 R/B 4.1 03:21:24 32° SSE 03:22:02 32° SSE 03:35:06 10° ESE
Cosmos 2263 Rocket 3.9 03:26:47 26° NE 03:26:47 26° NE 03:29:08 10° NNE
Cosmos 1634 Rocket 4.2 03:46:21 10° S 03:52:27 66° E 03:58:35 10° NNE
Cosmos 2195 Rocket 4.4 04:01:01 87° SW 04:01:01 87° SW 04:07:16 10° S
USA 234 4.0 03:55:19 10° ENE 04:01:36 48° SE 04:05:30 23° SSW
Cosmos 1627 Rocket 4.4 04:02:04 68° N 04:02:58 88° E 04:09:20 10° S
ATLAS 5 CENTAUR R/B 4.1 04:15:16 14° N 04:15:16 14° N 04:16:57 10° NNE
COSMO-SKYMED 1 2.7 04:19:26 10° SSE 04:23:43 71° ENE 04:23:43 71° ENE
Cosmos 1655 Rocket 4.4 04:18:21 10° N 04:24:31 61° ENE 04:30:41 10° SSE
Cosmos 1733 Rocket 4.1 04:27:26 10° SSE 04:31:32 45° E 04:35:41 10° NNE
PSLV R/B 3.8 04:36:28 10° NNE 04:40:37 90° E 04:44:44 10° SSW
GEOS 3 Rocket 3.5 04:37:47 10° SE 04:42:53 83° NE 04:44:43 42° NW
Cosmos 2221 Rocket 3.6 04:44:54 58° SW 04:44:54 58° SW 04:48:44 10° S
Cosmos 1500 3.8 04:42:12 10° S 04:45:56 55° E 04:49:41 10° NNE
ATLAS CENTAUR R/B 1.9 04:45:49 43° N 04:46:45 54° NE 04:50:36 10° SE
SKYMED 3 4.4 04:43:30 10° S 04:47:48 66° WSW 04:48:03 65° W
Cosmos 1515 4.1 04:49:19 50° SSW 04:49:19 50° SSW 04:52:17 10° S
NOSS 3-2 (A) 4.0 04:44:57 10° SSW 04:50:33 58° ESE 04:56:55 10° NE
SJ-12 3.8 04:47:41 10° NNE 04:51:50 89° W 04:55:55 10° SSW
Cosmos 1536 4.1 04:48:59 10° SSE 04:52:48 42° E 04:56:40 10° NNE
Cosmos 2266 Rocket 4.3 04:46:39 10° N 04:52:50 68° ENE 04:58:54 10° SSE
Okean O Rocket 2.3 04:51:07 10° NNE 04:55:28 57° E 04:59:50 10° S
PAYLOAD B 4.4 04:50:20 10° NNE 04:55:53 75° ESE 05:01:26 10° S
Cosmos 332 Rocket 3.7 04:52:19 10° SSW 04:57:14 86° WNW 05:02:10 10° NNE
CENTAUR R/B 4.2 04:53:54 10° S 04:59:12 34° ESE 05:05:15 10° NE
Cosmos 1674 Rocket 3.6 04:57:06 15° N 05:00:38 77° E 05:04:56 10° SSE
Cosmos 44 3.4 05:01:17 43° NW 05:01:26 44° NW 05:05:44 10° NNE
USA 238 DEB 3.8 04:56:56 10° SSW 05:03:37 78° SE 05:10:33 10° NE
USA 238 3.8 04:57:04 10° SSW 05:03:43 78° SE 05:10:39 10° NE
Orbus 7S? 2.6 05:04:23 65° ENE 05:04:23 65° ENE 05:06:41 10° NE
NOAA 6 4.3 04:59:55 10° NNE 05:05:03 70° ESE 05:10:11 10° S
Cosmos 2180 Rocket 4.3 04:59:08 10° SSW 05:05:15 75° W 05:11:29 10° N
Meteor 1-5 Rocket 4.3 04:59:21 10° S 05:05:16 87° ESE 05:11:04 10° NNE
Meteor 1-11 Rocket 4.0 04:59:44 10° S 05:05:31 74° E 05:11:27 10° NNE
Cosmos 2263 Rocket 3.2 05:08:31 25° NW 05:08:31 25° NW 05:12:36 10° N
Meteor 2-4 Rocket 3.6 05:06:02 17° NNW 05:10:06 55° W 05:15:18 10° S
Cosmos 2278 Rocket 4.5 05:05:57 10° SSE 05:10:33 26° ESE 05:15:11 10° NE
ADEOS Rocket 3.9 05:05:21 10° SE 05:11:42 51° ENE 05:17:29 10° N
SKYMED 2 4.0 05:07:55 10° SSW 05:11:57 37° W 05:12:22 36° W
ALOS 2.2 05:08:16 10° N 05:12:56 68° WNW 05:17:34 10° SSW
Okean 3 3.9 05:15:28 36° W 05:15:46 36° W 05:19:39 10° SSW
Cosmos 1378 Rocket 3.6 05:11:50 10° N 05:16:17 82° E 05:20:44 10° S
Cosmos 2292 Rocket 4.3 05:10:00 10° N 05:16:25 74° E 05:21:06 10° SSE
Cosmos 371 Rocket 3.5 05:11:47 10° SW 05:16:28 48° WNW 05:21:13 10° NNE
Cosmos 1331 Rocket 4.0 05:11:32 10° SW 05:16:36 56° WNW 05:21:45 10° NNE
Cosmos 405 3.0 05:15:56 43° NW 05:16:43 53° W 05:20:08 10° S
METEOR-M 4.0 05:12:56 10° N 05:18:16 68° WNW 05:23:35 10° SSW
FENGYUN 3A 3.5 05:13:46 10° N 05:19:08 69° WNW 05:24:28 10° SSW
Cosmos 2279 Rocket 4.2 05:16:11 10° SSW 05:22:07 46° WNW 05:28:07 10° N
Cosmos 1833 Rocket 3.8 05:19:56 10° NNW 05:25:17 42° NE 05:30:38 10° SE
Geosat 4.3 05:22:54 10° S 05:27:43 46° WSW 05:30:57 20° NW
SL-23 DEB 3.6 05:26:57 36° WNW 05:27:53 51° NNW 05:31:18 10° ENE
Cosmos 1666 2.9 05:25:51 10° S 05:29:37 73° E 05:33:24 10° NNE
CZ-4B DEB 4.3 05:27:43 10° N 05:33:05 51° WNW 05:38:26 10° SW
Cosmos 1110 Rocket 4.4 05:29:53 10° SW 05:34:41 37° WNW 05:39:30 10° N
Helios 1A Rocket 2.8 05:31:40 10° N 05:35:39 60° WNW 05:39:36 10° SSW
Cosmos 1844 Rocket 2.7 05:32:29 10° SW 05:37:56 53° WNW 05:43:25 10° NNE
USA 234 3.3 05:38:19 10° NE 05:44:48 66° NNW 05:51:15 10° WSW
BREEZE-M DEB (TANK) 3.6 05:45:58 12° SW 05:46:55 14° SSW 05:48:36 10° S
ATLAS 3B R/B 3.3 05:42:03 10° SSW 05:48:37 59° ESE 05:55:08 10° NE
SL-24 R/B 4.5 05:45:36 10° S 05:49:38 42° W 05:53:43 10° NNW
Cosmos 1908 Rocket 3.5 05:46:43 10° SSW 05:51:09 67° W 05:55:36 10° N
Cosmos 1844 3.8 05:45:39 10° SW 05:51:19 54° WNW 05:56:59 10° NNE
CZ-4B R/B 3.4 05:46:46 10° N 05:52:15 54° WNW 05:57:44 10° SW
IRIDIUM 104 4.4 05:47:55 10° N 05:53:04 60° W 05:58:11 10° SSW
Radarsat Rocket 4.2 05:47:32 10° NNE 05:53:56 80° WNW 06:01:08 10° SSW
NOSS 3-2 (C) 3.4 05:48:36 10° SW 05:54:26 87° NW 06:01:07 10° NE
Cosmos 1486 Rocket 4.2 05:49:43 10° NNW 05:54:51 51° WSW 05:59:54 10° S
COSMOS 2406 3.2 05:49:36 10° NNW 05:55:17 69° WSW 06:00:53 10° SSE
Aureole 2 4.2 05:53:38 10° NNW 05:57:00 84° ENE 06:00:02 10° SSE
BREEZE-M DEB (TANK) 2.6 05:52:56 13° W 05:57:50 62° N 06:00:19 10° E
COSMO-SKYMED 1 4.3 05:58:23 10° WSW 06:00:25 13° W 06:00:55 13° W
ATLAS 5 CENTAUR R/B 4.0 05:57:33 10° NNW 06:00:47 16° NNE 06:04:15 10° NE
Cosmos 44 Rocket 3.3 05:57:41 10° SW 06:02:28 56° NW 06:07:12 10° NNE
Envisat 3.8 05:57:54 10° NNE 06:02:55 55° E 06:07:53 10° S
AQUARIUS 4.1 05:58:41 10° NNE 06:03:12 86° WNW 06:07:42 10° SSW
CZ-2C R/B 3.9 05:59:47 10° SSE 06:04:33 89° ENE 06:09:21 10° NNW
Nadezhda 2 Rocket 4.4 06:00:28 10° NNW 06:06:34 73° W 06:12:37 10° S
Cosmos 304 Rocket 4.3 06:03:13 10° SW 06:07:38 36° WNW 06:12:06 10° N
H-2A R/B 2.7 06:04:31 10° N 06:08:14 59° WNW 06:11:59 10° SSW
CORIOLIS 4.3 06:03:29 10° NNE 06:08:56 85° ESE 06:14:18 10° SSW
Cosmos 1733 Rocket 4.3 06:06:28 10° WSW 06:09:36 19° WNW 06:12:45 10° NNW
Cosmos 1743 2.6 06:08:05 10° S 06:11:54 85° WNW 06:15:45 10° N
BREEZE-M DEB (TANK) 4.1 06:10:05 10° SW 06:12:51 63° SSE 06:19:26 10° ENE
YAOGAN 6 3.5 06:10:44 10° NNE 06:14:24 56° E 06:18:02 10° S
Cosmos 2082 Rocket 2.6 06:09:29 10° NNW 06:15:07 65° ENE 06:20:42 10° SE
EP 1 4.2 06:12:27 10° SW 06:15:19 87° NW 06:17:54 10° NE
Cosmos 292 Rocket 4.3 06:13:58 10° S 06:18:45 66° ESE 06:23:35 10° NNE
CZ-4 R/B 2.6 06:20:24 10° NNE 06:24:13 47° E 06:28:05 10° S
ATLAS CENTAUR R/B 2.9 06:22:24 10° WNW 06:25:14 18° WSW 06:27:56 10° SSW
Cosmos 968 Rocket 4.0 06:23:53 10° NW 06:28:42 41° WSW 06:33:28 10° S
Cosmos 1536 4.3 06:26:35 10° WSW 06:29:27 18° WNW 06:32:20 10° NNW
Cosmos 1809 Rocket 4.5 06:25:19 10° NNW 06:31:29 81° W 06:37:39 10° S
